Air Quality Table

TIMESTAMP NO2 SO2 O3 PM10 PM2.5 CO TEMP HUM AIRPRES WS WD NO BENZENE
2021-11-30 00:00 1.88 µg/m3 0.55 µg/m3 79.14 µg/m3 11.05 µg/m3 5.76 µg/m3 0.15 mg/m3 12.27 °C 65.44 % 1,013.49 mbar 5.04 m/s 245.1 Deg 0.16 µg/m3 0.58 µg/m3
2021-11-29 23:00 3.39 µg/m3 0.54 µg/m3 79.1 µg/m3 8.44 µg/m3 5.11 µg/m3 0.15 mg/m3 11.2 °C 71.29 % 1,013.35 mbar 5.8 m/s 254.7 Deg 0.44 µg/m3 0.47 µg/m3
2021-11-29 22:00 4.42 µg/m3 0.55 µg/m3 77.84 µg/m3 13.06 µg/m3 8.05 µg/m3 0.16 mg/m3 11.62 °C 71.48 % 1,012.48 mbar 5.15 m/s 256.9 Deg 0.65 µg/m3 0.52 µg/m3
2021-11-29 21:00 8.2 µg/m3 0.56 µg/m3 73.81 µg/m3 15.08 µg/m3 9.69 µg/m3 0.17 mg/m3 12.03 °C 71.22 % 1,011.54 mbar 4.8 m/s 259.47 Deg 1.85 µg/m3 0.65 µg/m3
2021-11-29 20:00 7.6 µg/m3 0.54 µg/m3 74.47 µg/m3 20.75 µg/m3 8.78 µg/m3 0.16 mg/m3 13.93 °C 55.53 % 1,010.32 mbar 6.46 m/s 249.42 Deg 1.84 µg/m3 0.79 µg/m3
2021-11-29 19:00 11 µg/m3 0.56 µg/m3 70.44 µg/m3 25.28 µg/m3 8.76 µg/m3 0.17 mg/m3 14.93 °C 48.46 % 1,009.11 mbar 6.25 m/s 247.1 Deg 2.72 µg/m3 0.84 µg/m3
2021-11-29 18:00 13.32 µg/m3 0.54 µg/m3 65.53 µg/m3 23.03 µg/m3 8.56 µg/m3 0.2 mg/m3 14.92 °C 55.67 % 1,008.05 mbar 5.75 m/s 240.8 Deg 3.69 µg/m3 1.33 µg/m3
2021-11-29 17:00 15.82 µg/m3 0.55 µg/m3 61.39 µg/m3 14.35 µg/m3 6.72 µg/m3 0.2 mg/m3 13.42 °C 68.4 % 1,007.78 mbar 4.73 m/s 232.4 Deg 3.89 µg/m3 1.23 µg/m3
2021-11-29 16:00 15.71 µg/m3 0.57 µg/m3 61.03 µg/m3 28.97 µg/m3 9.95 µg/m3 0.21 mg/m3 14.53 °C 59.65 % 1,006.92 mbar 5.72 m/s 235.53 Deg 4.36 µg/m3 0.87 µg/m3
2021-11-29 15:00 13.64 µg/m3 0.56 µg/m3 63.69 µg/m3 37.33 µg/m3 10.75 µg/m3 0.18 mg/m3 15.71 °C 51.35 % 1,006.32 mbar 5.96 m/s 224.13 Deg 3.51 µg/m3 0.91 µg/m3
2021-11-29 14:00 13.35 µg/m3 0.55 µg/m3 63.14 µg/m3 34.03 µg/m3 10.13 µg/m3 0.17 mg/m3 15.56 °C 52.35 % 1,006.34 mbar 6.14 m/s 222.87 Deg 4.07 µg/m3 0.65 µg/m3
2021-11-29 13:00 10.46 µg/m3 0.57 µg/m3 65.65 µg/m3 32.14 µg/m3 9.53 µg/m3 0.17 mg/m3 15.57 °C 51.61 % 1,007.06 mbar 6.86 m/s 222.18 Deg 2.61 µg/m3 0.82 µg/m3
2021-11-29 12:00 11.52 µg/m3 0.58 µg/m3 63.31 µg/m3 38.14 µg/m3 9.72 µg/m3 0.17 mg/m3 15.84 °C 49.65 % 1,007.67 mbar 5.88 m/s 222.6 Deg 3.76 µg/m3 0.76 µg/m3
2021-11-29 11:00 13.48 µg/m3 0.57 µg/m3 60.99 µg/m3 30.93 µg/m3 8.48 µg/m3 0.18 mg/m3 15.58 °C 48.79 % 1,007.96 mbar 5.26 m/s 225.05 Deg 4.47 µg/m3 0.86 µg/m3
2021-11-29 10:00 17.85 µg/m3 0.55 µg/m3 56.19 µg/m3 36.17 µg/m3 8.77 µg/m3 0.19 mg/m3 15.18 °C 49.58 % 1,008.16 mbar 4.55 m/s 225.6 Deg 6.96 µg/m3 1 µg/m3
2021-11-29 09:00 18.16 µg/m3 0.56 µg/m3 56.45 µg/m3 27.91 µg/m3 7.86 µg/m3 0.2 mg/m3 14.7 °C 50.89 % 1,008.07 mbar 5.01 m/s 224.32 Deg 5.89 µg/m3 1.08 µg/m3
2021-11-29 08:00 24.99 µg/m3 0.55 µg/m3 50.26 µg/m3 25.08 µg/m3 6.8 µg/m3 0.22 mg/m3 14.45 °C 50.63 % 1,007.58 mbar 3.97 m/s 226.68 Deg 8.18 µg/m3 1.08 µg/m3
2021-11-29 07:00 16.55 µg/m3 0.49 µg/m3 56.67 µg/m3 12.75 µg/m3 4.52 µg/m3 0.2 mg/m3 14.41 °C 49.53 % 1,006.90 mbar 3.97 m/s 225.7 Deg 3.85 µg/m3 0.68 µg/m3
2021-11-29 06:00 7.02 µg/m3 0.4 µg/m3 63.39 µg/m3 9.68 µg/m3 3.84 µg/m3 0.15 mg/m3 14.5 °C 51.76 % 1,006.44 mbar 3.48 m/s 232.22 Deg 1.07 µg/m3 0.5 µg/m3
2021-11-29 05:00 2.91 µg/m3 0.42 µg/m3 68.23 µg/m3 9.56 µg/m3 3.79 µg/m3 0.14 mg/m3 14.28 °C 56.02 % 1,006.17 mbar 3.42 m/s 237.43 Deg 0.14 µg/m3 0.42 µg/m3
2021-11-29 04:00 1.58 µg/m3 0.42 µg/m3 69.9 µg/m3 10.44 µg/m3 3.99 µg/m3 0.14 mg/m3 14.03 °C 61.65 % 1,005.84 mbar 3.9 m/s 248.93 Deg -0.02 µg/m3 0.44 µg/m3
2021-11-29 03:00 2.8 µg/m3 0.39 µg/m3 70.35 µg/m3 8.29 µg/m3 3.57 µg/m3 0.14 mg/m3 14.55 °C 60.38 % 1,005.53 mbar 3.68 m/s 245.72 Deg 0.58 µg/m3 0.47 µg/m3
2021-11-29 02:00 2.02 µg/m3 0.35 µg/m3 71.97 µg/m3 8.91 µg/m3 4.06 µg/m3 0.15 mg/m3 14.04 °C 68.12 % 1,005.39 mbar 3.19 m/s 248.17 Deg -0.17 µg/m3 0.52 µg/m3

It is to be noted that the data is provisional and subject to quality assurance procedures. For validated data kindly refer your request to contact.air@era.org.mt